Time,TemperatureF,DewpointF,PressureIn,WindDirection,WindDirectionDegrees,WindSpeedMPH,WindSpeedGustMPH,Humidity,HourlyPrecipIn,Conditions,Clouds,dailyrainin,SoftwareType,DateUTC
2013-01-31 00:00:00,42.0,41.2,29.26,ESE,108,0.0,1.0,97,0.00,,,0.29,Wunderground v.1.15,2013-01-31 05:00:00,
2013-01-31 00:01:00,41.9,41.1,29.26,ESE,109,0.0,1.0,97,0.00,,,0.29,Wunderground v.1.15,2013-01-31 05:01:00,
2013-01-31 00:07:00,44.7,43.9,29.25,East,84,0.0,2.0,97,0.00,,,0.30,Wunderground v.1.15,2013-01-31 05:07:00,
2013-01-31 00:10:00,45.9,45.1,29.25,ESE,109,0.0,1.0,97,0.00,,,0.30,Wunderground v.1.15,2013-01-31 05:10:00,
2013-01-31 00:15:00,44.7,43.9,29.27,WSW,250,0.0,1.0,97,0.00,,,0.30,Wunderground v.1.15,2013-01-31 05:15:00,
2013-01-31 00:20:00,43.6,42.8,29.28,SSE,160,0.0,0.0,97,0.25,,,0.32,Wunderground v.1.15,2013-01-31 05:20:00,
2013-01-31 00:26:00,44.0,43.2,29.27,ENE,57,0.0,2.0,97,0.21,,,0.34,Wunderground v.1.15,2013-01-31 05:26:00,
2013-01-31 00:31:00,44.9,44.1,29.25,ESE,110,1.0,3.0,97,0.10,,,0.34,Wunderground v.1.15,2013-01-31 05:31:00,
2013-01-31 00:36:00,46.3,45.5,29.24,ESE,112,3.0,4.0,97,0.10,,,0.00,Wunderground v.1.15,2013-01-31 05:36:00,
2013-01-31 00:41:00,47.1,46.3,29.23,ESE,117,2.0,2.0,97,0.06,,,0.00,Wunderground v.1.15,2013-01-31 05:41:00,
2013-01-31 00:47:00,47.0,46.2,29.23,SE,125,3.0,5.0,97,0.04,,,0.00,Wunderground v.1.15,2013-01-31 05:47:00,
2013-01-31 00:52:00,48.0,47.5,29.21,East,101,3.0,6.0,98,0.00,,,0.00,Wunderground v.1.15,2013-01-31 05:52:00,
2013-01-31 00:57:00,48.4,47.9,29.21,ESE,116,2.0,6.0,98,0.00,,,0.01,Wunderground v.1.15,2013-01-31 05:57:00,
2013-01-31 01:03:00,48.2,47.7,29.20,ENE,75,4.0,4.0,98,0.09,,,0.02,Wunderground v.1.15,2013-01-31 06:03:00,
2013-01-31 01:09:00,48.3,47.8,29.18,SE,136,2.0,3.0,98,0.09,,,0.03,Wunderground v.1.15,2013-01-31 06:09:00,
2013-01-31 01:14:00,48.1,47.6,29.19,East,95,2.0,3.0,98,0.08,,,0.03,Wunderground v.1.15,2013-01-31 06:14:00,
2013-01-31 01:20:00,48.1,47.6,29.17,East,89,5.0,5.0,98,0.04,,,0.03,Wunderground v.1.15,2013-01-31 06:20:00,
2013-01-31 01:25:00,48.0,47.5,29.17,SE,124,3.0,6.0,98,0.04,,,0.04,Wunderground v.1.15,2013-01-31 06:25:00,
2013-01-31 01:30:00,48.1,47.3,29.15,SE,142,3.0,6.0,97,0.04,,,0.04,Wunderground v.1.15,2013-01-31 06:30:00,
2013-01-31 01:35:00,48.0,47.2,29.15,East,95,5.0,10.0,97,0.04,,,0.04,Wunderground v.1.15,2013-01-31 06:35:00,
2013-01-31 01:41:00,47.5,46.7,29.15,SE,131,6.0,8.0,97,0.00,,,0.04,Wunderground v.1.15,2013-01-31 06:41:00,
2013-01-31 01:46:00,47.3,46.5,29.15,ESE,115,5.0,8.0,97,0.00,,,0.04,Wunderground v.1.15,2013-01-31 06:46:00,
2013-01-31 01:52:00,47.5,46.7,29.14,East,92,6.0,6.0,97,0.00,,,0.05,Wunderground v.1.15,2013-01-31 06:52:00,
2013-01-31 01:57:00,47.6,46.8,29.14,ESE,105,9.0,9.0,97,0.00,,,0.05,Wunderground v.1.15,2013-01-31 06:57:00,
2013-01-31 02:02:00,47.7,46.9,29.13,East,100,3.0,5.0,97,0.04,,,0.06,Wunderground v.1.15,2013-01-31 07:02:00,
2013-01-31 02:07:00,47.7,46.9,29.11,East,97,5.0,8.0,97,0.04,,,0.06,Wunderground v.1.15,2013-01-31 07:07:00,
2013-01-31 02:12:00,47.5,46.4,29.10,ESE,106,3.0,6.0,96,0.06,,,0.07,Wunderground v.1.15,2013-01-31 07:12:00,
2013-01-31 02:17:00,47.5,46.4,29.10,East,97,7.0,7.0,96,0.06,,,0.07,Wunderground v.1.15,2013-01-31 07:17:00,
2013-01-31 02:22:00,47.7,46.9,29.09,East,83,5.0,7.0,97,0.06,,,0.08,Wunderground v.1.15,2013-01-31 07:22:00,
2013-01-31 02:27:00,47.8,47.0,29.08,ESE,119,3.0,8.0,97,0.06,,,0.08,Wunderground v.1.15,2013-01-31 07:27:00,
2013-01-31 02:32:00,47.9,46.8,29.07,ESE,106,0.0,6.0,96,0.06,,,0.08,Wunderground v.1.15,2013-01-31 07:32:00,
2013-01-31 02:37:00,47.9,46.8,29.06,SE,129,0.0,6.0,96,0.04,,,0.09,Wunderground v.1.15,2013-01-31 07:37:00,
2013-01-31 02:42:00,47.9,46.8,29.07,SW,228,0.0,2.0,96,0.04,,,0.09,Wunderground v.1.15,2013-01-31 07:42:00,
2013-01-31 02:47:00,47.7,46.6,29.07,NNW,338,0.0,2.0,96,0.06,,,0.10,Wunderground v.1.15,2013-01-31 07:47:00,
2013-01-31 02:52:00,47.2,46.1,29.05,ESE,123,0.0,2.0,96,0.06,,,0.10,Wunderground v.1.15,2013-01-31 07:52:00,
2013-01-31 02:57:00,47.1,46.0,29.04,SE,127,1.0,6.0,96,0.08,,,0.11,Wunderground v.1.15,2013-01-31 07:57:00,
2013-01-31 03:02:00,47.2,46.4,29.04,East,79,2.0,3.0,97,0.06,,,0.11,Wunderground v.1.15,2013-01-31 08:02:00,
2013-01-31 03:07:00,47.5,46.7,29.03,East,79,4.0,5.0,97,0.04,,,0.11,Wunderground v.1.15,2013-01-31 08:07:00,
2013-01-31 03:12:00,47.7,46.9,29.02,ESE,121,2.0,5.0,97,0.04,,,0.12,Wunderground v.1.15,2013-01-31 08:12:00,
2013-01-31 03:17:00,47.7,46.9,29.01,NE,55,2.0,6.0,97,0.04,,,0.12,Wunderground v.1.15,2013-01-31 08:17:00,
2013-01-31 03:22:00,48.0,47.2,29.00,ENE,78,3.0,5.0,97,0.04,,,0.12,Wunderground v.1.15,2013-01-31 08:22:00,
2013-01-31 03:27:00,48.3,47.5,28.99,ESE,121,0.0,6.0,97,0.00,,,0.12,Wunderground v.1.15,2013-01-31 08:27:00,
2013-01-31 03:32:00,48.4,47.6,28.98,ESE,119,1.0,6.0,97,0.19,,,0.14,Wunderground v.1.15,2013-01-31 08:32:00,
2013-01-31 03:37:00,48.6,47.8,28.97,ENE,76,2.0,9.0,97,0.15,,,0.15,Wunderground v.1.15,2013-01-31 08:37:00,
2013-01-31 03:42:00,48.9,48.1,28.95,ESE,103,4.0,6.0,97,0.12,,,0.16,Wunderground v.1.15,2013-01-31 08:42:00,
2013-01-31 03:47:00,49.1,48.3,28.94,South,173,1.0,6.0,97,0.21,,,0.18,Wunderground v.1.15,2013-01-31 08:47:00,
2013-01-31 03:52:00,49.2,48.4,28.93,NNW,344,2.0,6.0,97,0.15,,,0.19,Wunderground v.1.15,2013-01-31 08:52:00,
2013-01-31 03:57:00,49.1,48.0,28.93,South,169,2.0,6.0,96,0.09,,,0.20,Wunderground v.1.15,2013-01-31 08:57:00,
2013-01-31 04:02:00,49.1,48.0,28.93,SE,132,0.0,2.0,96,0.10,,,0.21,Wunderground v.1.15,2013-01-31 09:02:00,
2013-01-31 04:07:00,49.1,48.3,28.93,West,278,1.0,5.0,97,0.12,,,0.22,Wunderground v.1.15,2013-01-31 09:07:00,
2013-01-31 04:12:00,49.0,47.9,28.92,SE,129,1.0,3.0,96,0.15,,,0.23,Wunderground v.1.15,2013-01-31 09:12:00,
2013-01-31 04:17:00,49.0,48.2,28.92,SSE,157,1.0,3.0,97,0.17,,,0.24,Wunderground v.1.15,2013-01-31 09:17:00,
2013-01-31 04:22:00,48.9,48.1,28.92,South,174,3.0,3.0,97,0.16,,,0.25,Wunderground v.1.15,2013-01-31 09:22:00,
2013-01-31 04:27:00,49.0,48.2,28.91,WSW,250,2.0,3.0,97,0.32,,,0.28,Wunderground v.1.15,2013-01-31 09:27:00,
2013-01-31 04:32:00,48.8,48.0,28.91,West,262,1.0,1.0,97,0.30,,,0.30,Wunderground v.1.15,2013-01-31 09:32:00,
2013-01-31 04:37:00,48.6,47.8,28.91,West,266,0.0,2.0,97,0.27,,,0.32,Wunderground v.1.15,2013-01-31 09:37:00,
2013-01-31 04:42:00,47.7,46.6,28.91,West,266,0.0,0.0,96,0.24,,,0.34,Wunderground v.1.15,2013-01-31 09:42:00,
2013-01-31 04:47:00,47.2,46.1,28.91,West,266,0.0,0.0,96,0.37,,,0.37,Wunderground v.1.15,2013-01-31 09:47:00,
2013-01-31 04:52:00,46.4,45.3,28.91,West,266,0.0,0.0,96,0.42,,,0.40,Wunderground v.1.15,2013-01-31 09:52:00,
2013-01-31 04:57:00,45.8,44.7,28.90,East,90,0.0,0.0,96,0.35,,,0.43,Wunderground v.1.15,2013-01-31 09:57:00,
2013-01-31 05:02:00,45.2,44.1,28.91,East,91,0.0,0.0,96,0.19,,,0.44,Wunderground v.1.15,2013-01-31 10:02:00,
2013-01-31 05:08:00,44.7,43.6,28.90,East,100,0.0,0.0,96,0.12,,,0.46,Wunderground v.1.15,2013-01-31 10:08:00,
2013-01-31 05:13:00,44.1,43.0,28.90,East,95,1.0,2.0,96,0.12,,,0.46,Wunderground v.1.15,2013-01-31 10:13:00,
2013-01-31 05:18:00,45.0,44.2,28.90,East,84,2.0,4.0,97,0.07,,,0.47,Wunderground v.1.15,2013-01-31 10:18:00,
2013-01-31 05:23:00,45.8,45.0,28.90,ESE,108,0.0,1.0,97,0.12,,,0.48,Wunderground v.1.15,2013-01-31 10:23:00,
2013-01-31 05:28:00,44.9,44.1,28.88,East,90,2.0,3.0,97,0.22,,,0.50,Wunderground v.1.15,2013-01-31 10:28:00,
2013-01-31 05:33:00,43.9,42.8,28.87,East,81,0.0,5.0,96,0.15,,,0.51,Wunderground v.1.15,2013-01-31 10:33:00,
2013-01-31 05:38:00,45.6,44.8,28.85,ENE,63,2.0,5.0,97,0.08,,,0.51,Wunderground v.1.15,2013-01-31 10:38:00,
2013-01-31 05:43:00,44.6,43.8,28.84,East,100,0.0,2.0,97,0.05,,,0.52,Wunderground v.1.15,2013-01-31 10:43:00,
2013-01-31 05:48:00,43.6,42.5,28.87,East,96,0.0,2.0,96,0.05,,,0.52,Wunderground v.1.15,2013-01-31 10:48:00,
2013-01-31 05:53:00,44.1,43.3,28.89,NNW,328,0.0,0.0,97,0.17,,,0.54,Wunderground v.1.15,2013-01-31 10:53:00,
2013-01-31 05:58:00,44.4,43.6,28.89,NE,50,3.0,3.0,97,0.32,,,0.57,Wunderground v.1.15,2013-01-31 10:58:00,
2013-01-31 06:04:00,43.9,43.1,28.86,East,81,3.0,3.0,97,0.28,,,0.59,Wunderground v.1.15,2013-01-31 11:04:00,
2013-01-31 06:09:00,43.6,42.8,28.85,East,81,1.0,1.0,97,0.29,,,0.61,Wunderground v.1.15,2013-01-31 11:09:00,
2013-01-31 06:14:00,43.8,43.0,28.84,ENE,70,1.0,2.0,97,0.14,,,0.62,Wunderground v.1.15,2013-01-31 11:14:00,
2013-01-31 06:19:00,44.7,43.9,28.85,East,95,0.0,1.0,97,0.11,,,0.63,Wunderground v.1.15,2013-01-31 11:19:00,
2013-01-31 06:24:00,44.3,43.5,28.86,East,92,1.0,2.0,97,0.06,,,0.64,Wunderground v.1.15,2013-01-31 11:24:00,
2013-01-31 06:29:00,46.3,45.5,28.85,East,81,0.0,0.0,97,0.06,,,0.64,Wunderground v.1.15,2013-01-31 11:29:00,
2013-01-31 06:34:00,45.8,45.0,28.82,ENE,75,1.0,4.0,97,0.15,,,0.66,Wunderground v.1.15,2013-01-31 11:34:00,
2013-01-31 06:39:00,45.7,44.9,28.81,SSE,162,0.0,2.0,97,0.11,,,0.66,Wunderground v.1.15,2013-01-31 11:39:00,
2013-01-31 06:44:00,44.7,43.9,28.80,East,80,5.0,5.0,97,0.06,,,0.66,Wunderground v.1.15,2013-01-31 11:44:00,
2013-01-31 06:49:00,47.5,47.0,28.78,ESE,121,2.0,5.0,98,0.04,,,0.66,Wunderground v.1.15,2013-01-31 11:49:00,
2013-01-31 06:54:00,48.6,48.1,28.79,ESE,117,4.0,7.0,98,0.00,,,0.66,Wunderground v.1.15,2013-01-31 11:54:00,
2013-01-31 06:59:00,49.1,48.6,28.79,East,79,2.0,4.0,98,0.00,,,0.66,Wunderground v.1.15,2013-01-31 11:59:00,
2013-01-31 07:05:00,48.9,48.4,28.80,South,171,6.0,6.0,98,0.00,,,0.66,Wunderground v.1.15,2013-01-31 12:05:00,
2013-01-31 07:10:00,49.2,48.7,28.80,SSE,155,3.0,6.0,98,0.40,,,0.68,Wunderground v.1.15,2013-01-31 12:10:00,
2013-01-31 07:15:00,48.9,48.4,28.84,NW,316,5.0,9.0,98,0.43,,,0.73,Wunderground v.1.15,2013-01-31 12:15:00,
2013-01-31 07:20:00,48.0,47.2,28.83,SW,231,4.0,5.0,97,0.21,,,0.75,Wunderground v.1.15,2013-01-31 12:20:00,
2013-01-31 07:25:00,47.7,46.9,28.81,West,273,1.0,10.0,97,0.18,,,0.76,Wunderground v.1.15,2013-01-31 12:25:00,
2013-01-31 07:30:00,47.5,46.4,28.81,WSW,250,5.0,9.0,96,0.11,,,0.77,Wunderground v.1.15,2013-01-31 12:30:00,
2013-01-31 07:35:00,46.8,45.4,28.84,NNE,15,8.0,19.0,95,0.10,,,0.78,Wunderground v.1.15,2013-01-31 12:35:00,
2013-01-31 07:40:00,44.2,41.5,28.88,North,352,3.0,15.0,90,0.09,,,0.78,Wunderground v.1.15,2013-01-31 12:40:00,
2013-01-31 07:45:00,42.4,40.2,28.89,NE,55,4.0,15.0,92,0.05,,,0.78,Wunderground v.1.15,2013-01-31 12:45:00,
2013-01-31 07:50:00,41.2,39.3,28.91,NW,309,7.0,9.0,93,0.04,,,0.79,Wunderground v.1.15,2013-01-31 12:50:00,
2013-01-31 07:55:00,40.2,38.1,28.92,NNW,327,5.0,15.0,92,0.04,,,0.79,Wunderground v.1.15,2013-01-31 12:55:00,
2013-01-31 08:00:00,39.2,37.1,28.92,NW,314,6.0,6.0,92,0.06,,,0.80,Wunderground v.1.15,2013-01-31 13:00:00,
2013-01-31 08:05:00,38.7,36.6,28.92,NNW,336,2.0,10.0,92,0.06,,,0.80,Wunderground v.1.15,2013-01-31 13:05:00,
2013-01-31 08:10:00,38.4,36.6,28.91,WNW,302,7.0,8.0,93,0.06,,,0.80,Wunderground v.1.15,2013-01-31 13:10:00,
2013-01-31 08:15:00,38.3,36.5,28.92,NNW,328,6.0,12.0,93,0.04,,,0.80,Wunderground v.1.15,2013-01-31 13:15:00,
2013-01-31 08:20:00,38.1,36.3,28.93,North,351,4.0,4.0,93,0.00,,,0.80,Wunderground v.1.15,2013-01-31 13:20:00,
2013-01-31 08:25:00,37.9,36.1,28.94,WSW,243,7.0,11.0,93,0.00,,,0.80,Wunderground v.1.15,2013-01-31 13:25:00,
2013-01-31 08:30:00,37.8,35.7,28.94,West,264,0.0,5.0,92,0.00,,,0.81,Wunderground v.1.15,2013-01-31 13:30:00,
2013-01-31 08:35:00,37.6,35.2,28.94,West,274,4.0,14.0,91,0.00,,,0.81,Wunderground v.1.15,2013-01-31 13:35:00,
2013-01-31 08:40:00,37.4,35.0,28.93,WNW,302,2.0,6.0,91,0.00,,,0.81,Wunderground v.1.15,2013-01-31 13:40:00,
2013-01-31 08:45:00,37.0,34.9,28.93,ENE,68,2.0,11.0,92,0.00,,,0.81,Wunderground v.1.15,2013-01-31 13:45:00,
2013-01-31 08:50:00,36.8,35.0,28.94,SE,145,1.0,6.0,93,0.00,,,0.82,Wunderground v.1.15,2013-01-31 13:50:00,
2013-01-31 08:55:00,36.3,34.5,28.94,SW,219,3.0,13.0,93,0.00,,,0.82,Wunderground v.1.15,2013-01-31 13:55:00,
2013-01-31 09:00:00,35.8,34.0,28.94,NW,305,7.0,7.0,93,0.00,,,0.82,Wunderground v.1.15,2013-01-31 14:00:00,
2013-01-31 09:05:00,35.4,33.6,28.95,NNW,328,4.0,16.0,93,0.00,,,0.82,Wunderground v.1.15,2013-01-31 14:05:00,
2013-01-31 09:10:00,35.1,33.3,28.95,South,174,2.0,8.0,93,0.00,,,0.83,Wunderground v.1.15,2013-01-31 14:10:00,
2013-01-31 09:15:00,34.8,33.0,28.95,ESE,102,1.0,15.0,93,0.00,,,0.83,Wunderground v.1.15,2013-01-31 14:15:00,
2013-01-31 09:20:00,34.5,33.0,28.96,NNW,340,1.0,7.0,94,0.00,,,0.83,Wunderground v.1.15,2013-01-31 14:20:00,
2013-01-31 09:25:00,34.3,32.8,28.96,NNW,332,5.0,16.0,94,0.00,,,0.83,Wunderground v.1.15,2013-01-31 14:25:00,
2013-01-31 09:31:00,34.3,32.8,28.96,NW,312,5.0,6.0,94,0.00,,,0.83,Wunderground v.1.15,2013-01-31 14:31:00,
2013-01-31 09:36:00,34.1,32.8,28.96,West,264,4.0,14.0,95,0.00,,,0.83,Wunderground v.1.15,2013-01-31 14:36:00,
2013-01-31 09:41:00,34.0,32.5,28.96,WNW,295,7.0,17.0,94,0.00,,,0.84,Wunderground v.1.15,2013-01-31 14:41:00,
2013-01-31 09:46:00,33.9,32.4,28.96,WSW,243,16.0,21.0,94,0.00,,,0.84,Wunderground v.1.15,2013-01-31 14:46:00,
2013-01-31 09:51:00,33.7,32.2,28.96,NW,314,10.0,14.0,94,0.00,,,0.84,Wunderground v.1.15,2013-01-31 14:51:00,
2013-01-31 09:56:00,34.0,32.5,28.97,WNW,297,3.0,15.0,94,0.00,,,0.84,Wunderground v.1.15,2013-01-31 14:56:00,
2013-01-31 10:01:00,34.5,32.7,28.97,WSW,247,5.0,7.0,93,0.00,,,0.84,Wunderground v.1.15,2013-01-31 15:01:00,
2013-01-31 10:06:00,34.7,32.6,28.98,NNW,335,4.0,13.0,92,0.00,,,0.84,Wunderground v.1.15,2013-01-31 15:06:00,
2013-01-31 10:11:00,34.2,32.1,29.00,NW,322,3.0,12.0,92,0.00,,,0.84,Wunderground v.1.15,2013-01-31 15:11:00,
2013-01-31 10:16:00,33.5,31.2,29.00,SSW,207,9.0,18.0,91,0.00,,,0.84,Wunderground v.1.15,2013-01-31 15:16:00,
2013-01-31 10:21:00,32.8,30.7,29.02,NNW,328,3.0,23.0,92,0.00,,,0.84,Wunderground v.1.15,2013-01-31 15:21:00,
2013-01-31 10:26:00,32.3,30.5,29.01,SW,231,5.0,23.0,93,0.00,,,0.84,Wunderground v.1.15,2013-01-31 15:26:00,
2013-01-31 10:31:00,32.3,30.2,29.02,SW,228,3.0,9.0,92,0.00,,,0.84,Wunderground v.1.15,2013-01-31 15:31:00,
2013-01-31 10:36:00,32.4,29.5,29.02,NW,319,6.0,15.0,89,0.00,,,0.84,Wunderground v.1.15,2013-01-31 15:36:00,
2013-01-31 10:41:00,32.5,28.8,29.02,NW,316,4.0,15.0,86,0.00,,,0.84,Wunderground v.1.15,2013-01-31 15:41:00,
2013-01-31 10:46:00,32.6,28.9,29.02,WNW,293,5.0,21.0,86,0.00,,,0.84,Wunderground v.1.15,2013-01-31 15:46:00,
2013-01-31 10:51:00,32.6,28.0,29.02,WNW,295,5.0,24.0,83,0.00,,,0.84,Wunderground v.1.15,2013-01-31 15:51:00,
2013-01-31 10:56:00,32.5,27.9,29.03,SW,234,4.0,24.0,83,0.00,,,0.84,Wunderground v.1.15,2013-01-31 15:56:00,
2013-01-31 11:01:00,32.2,27.6,29.03,NW,312,3.0,8.0,83,0.00,,,0.84,Wunderground v.1.15,2013-01-31 16:01:00,
2013-01-31 11:06:00,32.3,27.1,29.04,NNW,330,4.0,16.0,81,0.00,,,0.84,Wunderground v.1.15,2013-01-31 16:06:00,
2013-01-31 11:12:00,32.2,26.7,29.05,West,262,10.0,15.0,80,0.00,,,0.84,Wunderground v.1.15,2013-01-31 16:12:00,
2013-01-31 11:17:00,31.9,26.4,29.05,South,176,8.0,16.0,80,0.00,,,0.84,Wunderground v.1.15,2013-01-31 16:17:00,
2013-01-31 11:22:00,31.8,26.0,29.05,NW,308,19.0,19.0,79,0.00,,,0.84,Wunderground v.1.15,2013-01-31 16:22:00,
2013-01-31 11:27:00,32.2,25.8,29.04,South,172,9.0,19.0,77,0.00,,,0.84,Wunderground v.1.15,2013-01-31 16:27:00,
2013-01-31 11:32:00,32.3,25.3,29.04,North,10,6.0,14.0,75,0.00,,,0.84,Wunderground v.1.15,2013-01-31 16:32:00,
2013-01-31 11:37:00,31.9,24.9,29.05,North,350,4.0,20.0,75,0.00,,,0.84,Wunderground v.1.15,2013-01-31 16:37:00,
2013-01-31 11:42:00,31.6,24.6,29.05,SSW,212,9.0,21.0,75,0.00,,,0.84,Wunderground v.1.15,2013-01-31 16:42:00,
2013-01-31 11:47:00,31.3,24.0,29.06,South,187,5.0,21.0,74,0.00,,,0.84,Wunderground v.1.15,2013-01-31 16:47:00,
2013-01-31 11:52:00,31.2,24.5,29.06,WNW,294,7.0,19.0,76,0.00,,,0.84,Wunderground v.1.15,2013-01-31 16:52:00,
2013-01-31 11:57:00,31.2,23.9,29.07,SW,236,10.0,19.0,74,0.00,,,0.84,Wunderground v.1.15,2013-01-31 16:57:00,
2013-01-31 12:02:00,30.9,23.3,29.07,WSW,250,6.0,23.0,73,0.00,,,0.84,Wunderground v.1.15,2013-01-31 17:02:00,
2013-01-31 12:07:00,30.7,23.1,29.08,SSE,160,5.0,23.0,73,0.00,,,0.84,Wunderground v.1.15,2013-01-31 17:07:00,
2013-01-31 12:12:00,30.9,22.9,29.08,WNW,298,11.0,15.0,72,0.00,,,0.84,Wunderground v.1.15,2013-01-31 17:12:00,
2013-01-31 12:17:00,30.9,22.6,29.09,SW,229,12.0,16.0,71,0.00,,,0.84,Wunderground v.1.15,2013-01-31 17:17:00,
2013-01-31 12:22:00,30.8,22.2,29.09,NNW,344,3.0,14.0,70,0.00,,,0.84,Wunderground v.1.15,2013-01-31 17:22:00,
2013-01-31 12:27:00,30.6,22.3,29.09,NW,305,10.0,16.0,71,0.00,,,0.84,Wunderground v.1.15,2013-01-31 17:27:00,
2013-01-31 12:32:00,30.5,22.5,29.10,NNW,332,3.0,14.0,72,0.00,,,0.84,Wunderground v.1.15,2013-01-31 17:32:00,
2013-01-31 12:37:00,30.2,21.2,29.10,South,179,3.0,20.0,69,0.00,,,0.84,Wunderground v.1.15,2013-01-31 17:37:00,
2013-01-31 12:42:00,29.8,21.5,29.10,NW,321,6.0,10.0,71,0.00,,,0.84,Wunderground v.1.15,2013-01-31 17:42:00,
2013-01-31 12:47:00,29.7,21.4,29.10,NNW,337,3.0,13.0,71,0.00,,,0.84,Wunderground v.1.15,2013-01-31 17:47:00,
2013-01-31 12:52:00,29.6,21.7,29.10,WNW,283,2.0,12.0,72,0.00,,,0.84,Wunderground v.1.15,2013-01-31 17:52:00,
2013-01-31 12:57:00,29.6,21.0,29.10,WNW,295,15.0,28.0,70,0.00,,,0.84,Wunderground v.1.15,2013-01-31 17:57:00,
2013-01-31 13:02:00,29.5,20.2,29.10,SSE,160,5.0,15.0,68,0.00,,,0.84,Wunderground v.1.15,2013-01-31 18:02:00,
2013-01-31 13:07:00,29.4,20.1,29.10,WNW,298,5.0,15.0,68,0.00,,,0.84,Wunderground v.1.15,2013-01-31 18:07:00,
2013-01-31 13:12:00,29.2,19.9,29.10,West,273,1.0,14.0,68,0.00,,,0.84,Wunderground v.1.15,2013-01-31 18:12:00,
2013-01-31 13:17:00,29.2,20.3,29.10,WNW,299,3.0,14.0,69,0.00,,,0.84,Wunderground v.1.15,2013-01-31 18:17:00,
2013-01-31 13:22:00,29.1,19.5,29.10,North,3,5.0,22.0,67,0.00,,,0.84,Wunderground v.1.15,2013-01-31 18:22:00,
2013-01-31 13:27:00,29.1,19.8,29.11,North,350,9.0,22.0,68,0.00,,,0.84,Wunderground v.1.15,2013-01-31 18:27:00,
2013-01-31 13:32:00,29.0,18.3,29.11,West,272,16.0,25.0,64,0.00,,,0.84,Wunderground v.1.15,2013-01-31 18:32:00,
2013-01-31 13:37:00,29.5,18.1,29.11,WNW,301,9.0,25.0,62,0.00,,,0.84,Wunderground v.1.15,2013-01-31 18:37:00,
2013-01-31 13:42:00,29.9,18.5,29.11,NW,304,13.0,18.0,62,0.00,,,0.84,Wunderground v.1.15,2013-01-31 18:42:00,
2013-01-31 13:47:00,29.6,18.2,29.12,ENE,74,9.0,19.0,62,0.00,,,0.84,Wunderground v.1.15,2013-01-31 18:47:00,
2013-01-31 13:52:00,29.3,18.3,29.12,NNW,332,7.0,17.0,63,0.00,,,0.84,Wunderground v.1.15,2013-01-31 18:52:00,
2013-01-31 13:57:00,29.0,18.3,29.13,South,189,5.0,17.0,64,0.00,,,0.84,Wunderground v.1.15,2013-01-31 18:57:00,
2013-01-31 14:02:00,28.8,17.8,29.13,North,7,3.0,18.0,63,0.00,,,0.84,Wunderground v.1.15,2013-01-31 19:02:00,
2013-01-31 14:07:00,28.7,18.1,29.13,NW,323,7.0,19.0,64,0.00,,,0.84,Wunderground v.1.15,2013-01-31 19:07:00,
2013-01-31 14:12:00,28.6,18.0,29.13,WNW,295,17.0,23.0,64,0.00,,,0.84,Wunderground v.1.15,2013-01-31 19:12:00,
2013-01-31 14:17:00,28.6,17.6,29.13,NW,312,9.0,23.0,63,0.00,,,0.84,Wunderground v.1.15,2013-01-31 19:17:00,
2013-01-31 14:22:00,28.6,18.0,29.14,NW,318,6.0,23.0,64,0.00,,,0.84,Wunderground v.1.15,2013-01-31 19:22:00,
2013-01-31 14:27:00,28.9,18.6,29.14,NW,321,6.0,23.0,65,0.00,,,0.84,Wunderground v.1.15,2013-01-31 19:27:00,
2013-01-31 14:32:00,28.6,18.3,29.14,SW,226,11.0,13.0,65,0.00,,,0.84,Wunderground v.1.15,2013-01-31 19:32:00,
2013-01-31 14:37:00,28.3,17.7,29.15,NW,311,9.0,14.0,64,0.00,,,0.84,Wunderground v.1.15,2013-01-31 19:37:00,
2013-01-31 14:42:00,28.0,17.0,29.15,WNW,301,7.0,24.0,63,0.00,,,0.84,Wunderground v.1.15,2013-01-31 19:42:00,
2013-01-31 14:47:00,28.1,17.1,29.15,SW,233,7.0,24.0,63,0.00,,,0.84,Wunderground v.1.15,2013-01-31 19:47:00,
2013-01-31 14:52:00,28.2,16.8,29.16,NW,314,7.0,14.0,62,0.00,,,0.84,Wunderground v.1.15,2013-01-31 19:52:00,
2013-01-31 14:57:00,28.4,16.7,29.16,WNW,294,5.0,21.0,61,0.00,,,0.84,Wunderground v.1.15,2013-01-31 19:57:00,
2013-01-31 15:02:00,28.5,16.4,29.16,West,264,2.0,10.0,60,0.00,,,0.84,Wunderground v.1.15,2013-01-31 20:02:00,
2013-01-31 15:07:00,28.4,15.5,29.16,NW,322,7.0,16.0,58,0.00,,,0.84,Wunderground v.1.15,2013-01-31 20:07:00,
2013-01-31 15:12:00,28.3,15.8,29.16,SW,228,9.0,16.0,59,0.00,,,0.84,Wunderground v.1.15,2013-01-31 20:12:00,
2013-01-31 15:17:00,28.0,15.5,29.17,SE,135,3.0,16.0,59,0.00,,,0.84,Wunderground v.1.15,2013-01-31 20:17:00,
2013-01-31 15:22:00,27.9,16.6,29.18,NW,313,6.0,16.0,62,0.00,,,0.84,Wunderground v.1.15,2013-01-31 20:22:00,
2013-01-31 15:27:00,27.7,16.0,29.18,NW,313,6.0,17.0,61,0.00,,,0.84,Wunderground v.1.15,2013-01-31 20:27:00,
2013-01-31 15:32:00,27.8,16.1,29.18,NW,312,17.0,18.0,61,0.00,,,0.84,Wunderground v.1.15,2013-01-31 20:32:00,
2013-01-31 15:37:00,28.1,14.8,29.18,NW,307,8.0,24.0,57,0.00,,,0.84,Wunderground v.1.15,2013-01-31 20:37:00,
2013-01-31 15:42:00,27.9,15.0,29.18,WNW,287,25.0,25.0,58,0.00,,,0.84,Wunderground v.1.15,2013-01-31 20:42:00,
2013-01-31 15:48:00,27.8,14.1,29.19,WSW,246,6.0,25.0,56,0.00,,,0.84,Wunderground v.1.15,2013-01-31 20:48:00,
2013-01-31 15:53:00,27.7,14.4,29.19,WNW,299,2.0,23.0,57,0.00,,,0.84,Wunderground v.1.15,2013-01-31 20:53:00,
2013-01-31 15:58:00,27.5,14.6,29.20,WNW,288,4.0,23.0,58,0.00,,,0.84,Wunderground v.1.15,2013-01-31 20:58:00,
2013-01-31 16:03:00,27.2,15.1,29.20,NNW,342,8.0,27.0,60,0.00,,,0.84,Wunderground v.1.15,2013-01-31 21:03:00,
2013-01-31 16:08:00,27.0,15.3,29.21,WNW,294,14.0,27.0,61,0.00,,,0.84,Wunderground v.1.15,2013-01-31 21:08:00,
2013-01-31 16:13:00,26.9,15.6,29.21,WSW,242,7.0,15.0,62,0.00,,,0.84,Wunderground v.1.15,2013-01-31 21:13:00,
2013-01-31 16:18:00,26.7,15.4,29.22,NW,318,20.0,20.0,62,0.00,,,0.84,Wunderground v.1.15,2013-01-31 21:18:00,
2013-01-31 16:23:00,26.5,16.0,29.23,WNW,299,10.0,13.0,64,0.00,,,0.84,Wunderground v.1.15,2013-01-31 21:23:00,
2013-01-31 16:28:00,26.3,15.8,29.22,SW,221,9.0,16.0,64,0.00,,,0.84,Wunderground v.1.15,2013-01-31 21:28:00,
2013-01-31 16:33:00,26.0,15.8,29.22,WNW,295,6.0,18.0,65,0.00,,,0.84,Wunderground v.1.15,2013-01-31 21:33:00,
2013-01-31 16:38:00,25.7,15.9,29.23,NW,308,7.0,18.0,66,0.00,,,0.84,Wunderground v.1.15,2013-01-31 21:38:00,
2013-01-31 16:43:00,25.6,16.2,29.24,NW,308,6.0,20.0,67,0.00,,,0.84,Wunderground v.1.15,2013-01-31 21:43:00,
2013-01-31 16:48:00,25.4,16.3,29.24,NW,307,10.0,25.0,68,0.00,,,0.84,Wunderground v.1.15,2013-01-31 21:48:00,
2013-01-31 16:53:00,25.2,16.1,29.25,NW,307,3.0,19.0,68,0.00,,,0.84,Wunderground v.1.15,2013-01-31 21:53:00,
2013-01-31 16:58:00,25.0,15.6,29.25,NW,313,10.0,24.0,67,0.00,,,0.84,Wunderground v.1.15,2013-01-31 21:58:00,
2013-01-31 17:03:00,24.9,15.5,29.25,West,264,8.0,19.0,67,0.00,,,0.84,Wunderground v.1.15,2013-01-31 22:03:00,
2013-01-31 17:08:00,24.8,16.1,29.25,WSW,246,13.0,19.0,69,0.00,,,0.84,Wunderground v.1.15,2013-01-31 22:08:00,
2013-01-31 17:13:00,24.7,15.3,29.26,WSW,243,4.0,19.0,67,0.00,,,0.84,Wunderground v.1.15,2013-01-31 22:13:00,
2013-01-31 17:18:00,24.5,15.1,29.26,NW,309,5.0,19.0,67,0.00,,,0.84,Wunderground v.1.15,2013-01-31 22:18:00,
2013-01-31 17:23:00,24.4,15.0,29.26,ENE,72,5.0,15.0,67,0.00,,,0.84,Wunderground v.1.15,2013-01-31 22:23:00,
2013-01-31 17:28:00,24.3,14.9,29.27,SSW,198,7.0,16.0,67,0.00,,,0.84,Wunderground v.1.15,2013-01-31 22:28:00,
2013-01-31 17:33:00,24.3,14.9,29.27,West,274,11.0,19.0,67,0.00,,,0.84,Wunderground v.1.15,2013-01-31 22:33:00,
2013-01-31 17:38:00,24.2,14.1,29.27,ENE,66,5.0,27.0,65,0.00,,,0.84,Wunderground v.1.15,2013-01-31 22:38:00,
2013-01-31 17:43:00,24.2,14.5,29.28,NW,308,1.0,19.0,66,0.00,,,0.84,Wunderground v.1.15,2013-01-31 22:43:00,
2013-01-31 17:48:00,24.1,14.4,29.29,NNW,339,8.0,31.0,66,0.00,,,0.84,Wunderground v.1.15,2013-01-31 22:48:00,
2013-01-31 17:53:00,24.0,13.9,29.29,SSW,202,4.0,21.0,65,0.00,,,0.84,Wunderground v.1.15,2013-01-31 22:53:00,
2013-01-31 17:58:00,24.0,13.9,29.29,SE,136,10.0,21.0,65,0.00,,,0.84,Wunderground v.1.15,2013-01-31 22:58:00,
2013-01-31 18:03:00,24.0,13.2,29.29,ENE,67,6.0,30.0,63,0.00,,,0.84,Wunderground v.1.15,2013-01-31 23:03:00,
2013-01-31 18:08:00,24.0,12.9,29.29,ESE,104,3.0,30.0,62,0.00,,,0.84,Wunderground v.1.15,2013-01-31 23:08:00,
2013-01-31 18:13:00,23.9,12.4,29.30,WNW,291,8.0,19.0,61,0.00,,,0.84,Wunderground v.1.15,2013-01-31 23:13:00,
2013-01-31 18:18:00,23.8,11.5,29.30,WSW,239,6.0,24.0,59,0.00,,,0.84,Wunderground v.1.15,2013-01-31 23:18:00,
2013-01-31 18:23:00,23.8,11.5,29.31,NNW,343,10.0,23.0,59,0.00,,,0.84,Wunderground v.1.15,2013-01-31 23:23:00,
2013-01-31 18:29:00,23.6,11.7,29.31,NW,316,2.0,9.0,60,0.00,,,0.84,Wunderground v.1.15,2013-01-31 23:29:00,
2013-01-31 18:34:00,23.5,12.7,29.31,NW,316,8.0,14.0,63,0.00,,,0.84,Wunderground v.1.15,2013-01-31 23:34:00,
2013-01-31 18:39:00,23.5,12.7,29.32,WNW,299,11.0,15.0,63,0.00,,,0.84,Wunderground v.1.15,2013-01-31 23:39:00,
2013-01-31 18:44:00,23.4,13.0,29.32,SW,221,9.0,23.0,64,0.00,,,0.84,Wunderground v.1.15,2013-01-31 23:44:00,
2013-01-31 18:49:00,23.3,12.6,29.32,SSE,159,3.0,8.0,63,0.00,,,0.84,Wunderground v.1.15,2013-01-31 23:49:00,
2013-01-31 18:54:00,23.2,12.8,29.32,WNW,290,11.0,18.0,64,0.00,,,0.84,Wunderground v.1.15,2013-01-31 23:54:00,
2013-01-31 18:59:00,23.2,12.5,29.33,WNW,285,9.0,9.0,63,0.00,,,0.84,Wunderground v.1.15,2013-01-31 23:59:00,
2013-01-31 19:04:00,23.1,12.7,29.33,NW,307,5.0,19.0,64,0.00,,,0.84,Wunderground v.1.15,2013-02-01 00:04:00,
2013-01-31 19:09:00,22.9,11.8,29.33,NW,321,6.0,8.0,62,0.00,,,0.84,Wunderground v.1.15,2013-02-01 00:09:00,
2013-01-31 19:14:00,22.8,11.7,29.34,SSE,150,4.0,11.0,62,0.00,,,0.84,Wunderground v.1.15,2013-02-01 00:14:00,
2013-01-31 19:19:00,22.7,11.6,29.34,WNW,295,4.0,6.0,62,0.00,,,0.84,Wunderground v.1.15,2013-02-01 00:19:00,
2013-01-31 19:24:00,22.7,11.6,29.34,West,281,6.0,15.0,62,0.00,,,0.84,Wunderground v.1.15,2013-02-01 00:24:00,
2013-01-31 19:29:00,22.7,11.3,29.34,NE,39,4.0,6.0,61,0.00,,,0.84,Wunderground v.1.15,2013-02-01 00:29:00,
2013-01-31 19:34:00,22.7,11.3,29.34,NE,36,2.0,18.0,61,0.00,,,0.84,Wunderground v.1.15,2013-02-01 00:34:00,
2013-01-31 19:39:00,22.7,11.6,29.35,NW,311,1.0,6.0,62,0.00,,,0.84,Wunderground v.1.15,2013-02-01 00:39:00,
2013-01-31 19:44:00,22.6,11.5,29.35,SSW,205,1.0,12.0,62,0.00,,,0.84,Wunderground v.1.15,2013-02-01 00:44:00,
2013-01-31 19:49:00,22.5,11.1,29.35,NNW,338,6.0,6.0,61,0.00,,,0.84,Wunderground v.1.15,2013-02-01 00:49:00,
2013-01-31 19:55:00,22.5,11.1,29.35,NNW,328,19.0,19.0,61,0.00,,,0.84,Wunderground v.1.15,2013-02-01 00:55:00,
2013-01-31 19:59:00,22.5,10.7,29.35,SW,233,5.0,11.0,60,0.00,,,0.84,Wunderground v.1.15,2013-02-01 00:59:00,
2013-01-31 20:05:00,22.5,11.1,29.36,NW,321,5.0,11.0,61,0.00,,,0.84,Wunderground v.1.15,2013-02-01 01:05:00,
2013-01-31 20:10:00,22.5,10.7,29.36,West,263,1.0,9.0,60,0.00,,,0.84,Wunderground v.1.15,2013-02-01 01:10:00,
2013-01-31 20:15:00,22.4,10.2,29.36,NW,309,4.0,14.0,59,0.00,,,0.84,Wunderground v.1.15,2013-02-01 01:15:00,
2013-01-31 20:20:00,22.4,10.2,29.37,WNW,296,6.0,12.0,59,0.00,,,0.84,Wunderground v.1.15,2013-02-01 01:20:00,
2013-01-31 20:25:00,22.4,10.2,29.37,WNW,298,8.0,18.0,59,0.00,,,0.84,Wunderground v.1.15,2013-02-01 01:25:00,
2013-01-31 20:30:00,22.3,9.7,29.38,NW,315,4.0,16.0,58,0.00,,,0.84,Wunderground v.1.15,2013-02-01 01:30:00,
2013-01-31 20:35:00,22.3,10.1,29.37,North,359,3.0,16.0,59,0.00,,,0.84,Wunderground v.1.15,2013-02-01 01:35:00,
2013-01-31 20:40:00,22.2,10.0,29.37,NNW,337,4.0,18.0,59,0.00,,,0.84,Wunderground v.1.15,2013-02-01 01:40:00,
2013-01-31 20:46:00,22.2,10.0,29.37,WNW,296,6.0,18.0,59,0.00,,,0.84,Wunderground v.1.15,2013-02-01 01:46:00,
2013-01-31 20:51:00,22.2,10.0,29.38,West,281,3.0,6.0,59,0.00,,,0.84,Wunderground v.1.15,2013-02-01 01:51:00,
2013-01-31 20:56:00,22.1,9.6,29.38,NW,304,7.0,12.0,58,0.00,,,0.84,Wunderground v.1.15,2013-02-01 01:56:00,
2013-01-31 21:01:00,22.1,9.6,29.38,NW,326,6.0,6.0,58,0.00,,,0.84,Wunderground v.1.15,2013-02-01 02:01:00,
2013-01-31 21:06:00,22.1,9.6,29.39,NNE,29,5.0,19.0,58,0.00,,,0.84,Wunderground v.1.15,2013-02-01 02:06:00,
2013-01-31 21:10:00,22.1,9.6,29.38,West,266,10.0,13.0,58,0.00,,,0.84,Wunderground v.1.15,2013-02-01 02:10:00,
2013-01-31 21:16:00,22.1,9.6,29.39,SSE,153,7.0,18.0,58,0.00,,,0.84,Wunderground v.1.15,2013-02-01 02:16:00,
2013-01-31 21:21:00,22.1,9.2,29.39,WNW,295,4.0,7.0,57,0.00,,,0.84,Wunderground v.1.15,2013-02-01 02:21:00,
2013-01-31 21:26:00,22.0,9.1,29.40,North,349,5.0,16.0,57,0.00,,,0.84,Wunderground v.1.15,2013-02-01 02:26:00,
2013-01-31 21:31:00,22.0,9.1,29.39,West,264,9.0,11.0,57,0.00,,,0.84,Wunderground v.1.15,2013-02-01 02:31:00,
2013-01-31 21:36:00,21.9,8.6,29.40,North,6,5.0,15.0,56,0.00,,,0.84,Wunderground v.1.15,2013-02-01 02:36:00,
2013-01-31 21:41:00,21.9,9.0,29.40,North,353,15.0,18.0,57,0.00,,,0.84,Wunderground v.1.15,2013-02-01 02:41:00,
2013-01-31 21:46:00,21.9,9.4,29.40,WNW,302,3.0,18.0,58,0.00,,,0.84,Wunderground v.1.15,2013-02-01 02:46:00,
2013-01-31 21:51:00,21.8,8.9,29.40,ENE,65,4.0,9.0,57,0.00,,,0.84,Wunderground v.1.15,2013-02-01 02:51:00,
2013-01-31 21:56:00,21.7,8.8,29.41,WSW,239,1.0,9.0,57,0.00,,,0.84,Wunderground v.1.15,2013-02-01 02:56:00,
2013-01-31 22:01:00,21.7,8.8,29.41,WNW,301,4.0,13.0,57,0.00,,,0.84,Wunderground v.1.15,2013-02-01 03:01:00,
2013-01-31 22:06:00,21.6,8.7,29.41,WNW,302,6.0,13.0,57,0.00,,,0.84,Wunderground v.1.15,2013-02-01 03:06:00,
2013-01-31 22:11:00,21.5,8.6,29.41,ENE,62,9.0,12.0,57,0.00,,,0.84,Wunderground v.1.15,2013-02-01 03:11:00,
2013-01-31 22:16:00,21.5,8.6,29.41,NW,320,0.0,12.0,57,0.00,,,0.84,Wunderground v.1.15,2013-02-01 03:16:00,
2013-01-31 22:21:00,21.4,8.9,29.41,ENE,74,6.0,14.0,58,0.00,,,0.84,Wunderground v.1.15,2013-02-01 03:21:00,
2013-01-31 22:26:00,21.3,8.8,29.41,WSW,238,7.0,14.0,58,0.00,,,0.84,Wunderground v.1.15,2013-02-01 03:26:00,
2013-01-31 22:31:00,21.3,8.4,29.41,WNW,302,8.0,14.0,57,0.00,,,0.84,Wunderground v.1.15,2013-02-01 03:31:00,
2013-01-31 22:36:00,21.2,8.7,29.41,North,356,4.0,14.0,58,0.00,,,0.84,Wunderground v.1.15,2013-02-01 03:36:00,
2013-01-31 22:41:00,21.2,8.7,29.41,WNW,302,7.0,14.0,58,0.00,,,0.84,Wunderground v.1.15,2013-02-01 03:41:00,
2013-01-31 22:46:00,21.2,8.7,29.41,NW,319,7.0,14.0,58,0.00,,,0.84,Wunderground v.1.15,2013-02-01 03:46:00,
2013-01-31 22:51:00,21.0,11.8,29.42,WNW,303,7.0,9.0,67,0.00,,,0.84,Wunderground v.1.15,2013-02-01 03:51:00,
2013-01-31 22:56:00,20.5,13.5,29.43,SSW,208,6.0,11.0,74,0.00,,,0.84,Wunderground v.1.15,2013-02-01 03:56:00,
2013-01-31 23:01:00,20.1,14.0,29.43,West,263,7.0,9.0,77,0.00,,,0.84,Wunderground v.1.15,2013-02-01 04:01:00,
2013-01-31 23:06:00,19.9,13.9,29.43,WNW,295,4.0,13.0,77,0.00,,,0.84,Wunderground v.1.15,2013-02-01 04:06:00,
2013-01-31 23:11:00,19.6,13.9,29.43,NW,319,5.0,11.0,78,0.00,,,0.84,Wunderground v.1.15,2013-02-01 04:11:00,
2013-01-31 23:16:00,19.5,14.0,29.43,NW,311,5.0,11.0,79,0.00,,,0.84,Wunderground v.1.15,2013-02-01 04:16:00,
2013-01-31 23:21:00,19.4,14.2,29.43,NNW,328,3.0,9.0,80,0.00,,,0.84,Wunderground v.1.15,2013-02-01 04:21:00,
2013-01-31 23:26:00,19.2,14.3,29.43,NW,307,4.0,9.0,81,0.00,,,0.84,Wunderground v.1.15,2013-02-01 04:26:00,
2013-01-31 23:31:00,19.2,14.3,29.43,WNW,283,3.0,9.0,81,0.00,,,0.84,Wunderground v.1.15,2013-02-01 04:31:00,
2013-01-31 23:36:00,19.2,14.6,29.43,NW,309,6.0,9.0,82,0.00,,,0.84,Wunderground v.1.15,2013-02-01 04:36:00,
2013-01-31 23:41:00,19.0,15.0,29.43,WNW,302,4.0,8.0,84,0.00,,,0.84,Wunderground v.1.15,2013-02-01 04:41:00,
2013-01-31 23:47:00,18.8,15.3,29.43,NW,319,2.0,10.0,86,0.00,,,0.84,Wunderground v.1.15,2013-02-01 04:47:00,
2013-01-31 23:52:00,18.6,15.4,29.44,WNW,298,5.0,11.0,87,0.00,,,0.84,Wunderground v.1.15,2013-02-01 04:52:00,
2013-01-31 23:57:00,18.5,15.3,29.44,West,277,7.0,11.0,87,0.00,,,0.84,Wunderground v.1.15,2013-02-01 04:57:00,